RH
100 101 102 102 101 100 99 98 97 96 97 99 101 101 99 96 94 92 90 88 87 87 89 92 96 99 101 102 103 103 103 103 102 102 102 101 100 100 100 99 97 91 86 88 93 95 95 95 93 86 82 82 86 89 90 91 93 91 90 90 91 91 90
100 101 101 100 100 100 100 100 101 102 103 102 102 102 101 101 100 98 95 92 92 92 94 95 97 100 101 102 104 104 103 103 103 102 102 102 102 101 100 98 96 91 84 82 85 89 92 97 99 97 90 85 87 92 95 96 97 98 96 93 93 93 93
96 99 101 101 101 101 101 100 99 100 101 101 101 101 102 101 102 102 101 101 99 98 100 100 100 101 101 101 102 102 101 101 101 101 101 101 102 103 102 100 99 94 86 80 80 82 85 90 94 96 93 88 86 90 97 102 102 102 102 100 96 94 93
62 70 77 85 90 94 97 99 101 102 102 101 100 100 100 100 101 101 102 103 101 101 102 102 100 100 100 100 101 101 101 101 101 100 101 102 103 102 102 102 102 98 91 83 78 77 80 87 91 90 89 86 82 81 86 94 100 103 103 102 101 98 95
32 35 38 44 49 54 60 67 75 83 91 97 100 102 101 100 100 100 101 102 100 100 100 101 101 101 100 101 100 100 101 102 102 102 103 104 103 102 102 102 103 103 100 93 84 78 78 82 85 86 86 84 80 77 75 79 87 97 102 103 103 103 101
26 27 27 27 27 27 28 30 33 38 46 58 70 82 91 97 100 101 100 100 100 101 101 100 100 100 100 101 100 99 100 101 101 102 102 102 101 102 102 101 100 102 104 100 91 83 80 80 80 80 82 82 81 78 74 71 72 81 93 101 103 103 103
26 28 30 30 29 28 26 25 24 23 22 24 29 37 50 65 80 92 100 103 102 100 99 100 100 100 100 101 101 101 100 100 101 102 102 101 100 101 102 102 101 101 103 102 96 88 84 84 83 79 77 78 80 80 76 73 70 71 80 95 104 105 102
31 31 32 33 34 34 33 31 30 28 25 23 21 19 21 26 37 53 73 91 103 105 102 99 97 97 98 100 101 101 101 100 100 101 102 101 100 101 101 102 102 102 102 102 101 96 91 91 92 88 82 78 80 81 78 76 77 76 76 85 99 106 105
43 40 39 39 39 39 40 39 37 35 32 29 27 24 21 18 17 20 28 44 64 82 95 101 102 101 100 99 99 98 98 98 98 98 99 99 99 101 103 103 104 105 104 104 104 102 99 100 100 95 91 88 87 90 90 88 86 82 77 78 87 96 102
55 53 50 48 46 44 44 43 42 40 38 36 33 30 27 24 21 18 16 16 20 31 48 64 78 88 95 100 102 102 101 101 100 99 99 99 99 99 101 101 102 103 103 103 103 102 101 103 102 97 95 94 93 96 102 101 97 91 85 82 84 87 93
63 65 64 62 60 56 52 50 47 45 42 40 38 35 32 29 26 23 21 19 17 15 16 21 29 38 49 62 74 84 90 93 95 97 99 100 100 100 101 102 102 102 102 101 102 101 100 102 101 98 99 99 97 97 101 103 103 101 93 88 89 90 90
72 78 79 78 75 71 67 62 57 52 48 44 42 39 35 32 30 27 25 22 21 19 18 16 15 16 18 24 32 41 49 55 61 67 72 77 83 87 90 93 95 96 97 98 99 99 99 100 100 99 101 102 101 100 102 103 104 102 96 91 92 96 94
89 93 95 93 89 84 79 73 67 60 55 49 46 42 38 35 32 30 28 25 23 21 19 18 18 19 20 22 24 27 29 31 34 36 40 44 50 55 60 65 70 73 75 79 83 85 86 88 89 89 91 92 93 94 95 96 95 93 91 88 88 90 93
100 101 102 104 103 97 90 83 75 67 60 54 50 45 41 37 33 30 26 24 22 20 19 19 19 21 23 26 30 32 34 34 34 33 33 33 33 35 36 39 42 45 49 53 57 61 65 67 69 70 71 71 72 73 73 74 75 75 75 75 74 75 78
101 101 101 104 107 107 100 90 80 72 64 57 51 45 39 34 30 27 24 22 20 19 19 20 21 24 26 29 32 34 36 36 37 37 37 37 36 35 34 33 33 33 34 35 37 40 42 44 46 47 50 51 52 54 54 55 55 55 55 56 56 57 59
100 100 101 103 106 107 103 92 81 70 61 52 44 38 33 29 26 23 22 22 22 23 27 31 35 37 38 39 41 43 44 44 42 41 40 38 38 37 36 36 36 36 36 36 37 37 36 36 35 35 36 37 39 41 43 43 44 44 44 44 44 44 45
100 100 101 102 104 105 99 85 70 58 48 41 36 31 28 26 26 26 28 32 35 41 47 52 55 58 60 62 66 68 70 69 66 62 57 54 52 53 53 53 52 52 51 50 49 47 46 44 42 41 40 39 38 38 39 40 40 38 38 38 38 37 37
100 101 102 103 103 99 86 68 54 45 39 36 34 33 33 35 38 41 44 50 58 68 74 75 76 78 80 85 90 92 92 91 89 84 79 75 73 71 69 67 64 60 58 55 53 51 49 47 45 44 43 41 39 38 38 39 39 37 37 38 37 36 35
100 101 103 104 99 85 67 52 45 42 41 43 43 43 44 49 53 57 64 73 81 87 88 87 86 85 85 87 88 88 87 86 85 82 78 76 75 74 70 65 61 60 60 60 57 55 53 50 48 45 44 43 43 41 41 43 42 39 39 39 39 39 40
101 102 104 102 88 68 54 48 48 48 49 51 51 51 55 58 60 68 79 87 90 92 93 92 93 91 89 87 85 82 80 78 76 74 71 69 70 69 66 62 58 58 60 60 58 56 55 54 52 51 51 50 50 50 50 53 54 52 48 48 49 51 51
101 103 105 97 77 61 57 56 56 56 56 57 59 63 64 63 68 82 93 94 92 92 91 88 84 78 72 67 62 59 56 53 51 50 48 47 46 44 43 42 40 39 39 39 39 38 38 37 37 37 37 36 37 38 38 40 43 45 44 46 50 56 62
101 104 107 97 77 67 68 68 66 67 66 67 70 73 72 73 83 94 95 86 79 73 66 58 52 47 45 43 43 43 42 41 41 40 40 39 37 36 36 35 33 32 32 31 31 30 29 29 29 28 28 28 27 27 26 26 26 27 27 28 30 37 48
101 104 108 103 92 86 84 84 83 82 81 84 87 88 88 87 84 77 66 58 53 48 44 44 44 45 47 49 49 49 48 47 46 45 44 42 41 41 40 38 37 37 36 34 34 33 32 31 30 30 29 29 28 27 27 26 25 24 24 23 22 22 25
101 102 103 104 102 100 99 99 96 91 93 99 100 94 87 76 62 50 45 45 46 46 47 49 50 50 50 50 49 48 47 46 45 43 42 41 41 40 39 38 38 36 36 35 34 32 31 30 29 29 28 27 27 27 26 26 26 25 24 24 23 23 21
100 100 101 101 102 101 101 101 100 98 99 97 85 71 61 55 50 49 50 51 50 51 52 52 52 51 50 48 47 46 44 43 41 40 38 37 36 35 33 32 32 31 30 29 28 27 27 26 26 25 25 25 24 24 24 24 24 23 23 23 22 22 23
100 100 100 100 100 100 101 101 100 97 90 76 60 52 51 53 56 58 58 57 56 56 55 53 51 48 45 42 40 38 36 35 33 32 31 30 29 28 27 26 26 26 25 24 24 23 23 22 22 21 21 21 21 21 21 21 21 21 21 22 22 22 22
100 100 100 100 101 101 100 96 89 80 69 58 54 56 58 61 63 64 62 61 58 55 50 45 41 38 35 33 31 30 28 27 26 25 24 23 22 22 21 20 20 19 19 19 19 19 18 18 19 18 18 19 19 19 19 19 19 20 20 20 21 22 22
100 100 100 101 99 94 88 80 72 65 61 60 62 64 65 67 68 66 61 55 49 43 38 35 32 30 29 27 25 24 23 22 22 21 21 20 21 21 21 21 21 21 21 21 20 20 20 20 20 20 20 20 20 20 21 22 22 23 23 24 26 26 25
100 101 99 95 89 81 74 70 67 66 66 68 69 70 70 67 62 54 47 40 36 33 31 29 28 26 25 25 25 26 27 28 29 30 31 32 33 33 33 34 33 33 33 33 32 32 32 32 33 33 32 31 30 30 29 29 30 31 31 32 35 36 35
100 96 89 82 77 74 73 73 73 74 74 74 72 67 60 52 44 38 35 32 30 29 28 27 28 30 33 36 39 41 42 43 43 43 43 42 41 40 39 38 37 37 36 36 36 36 36 37 38 39 40 42 43 44 45 45 44 42 40 39 39 41 43
89 83 78 76 76 78 79 79 77 75 71 65 57 48 41 37 34 32 30 29 28 30 33 37 42 46 48 49 49 48 46 44 41 38 36 34 32 31 30 29 28 28 28 28 29 30 31 32 33 34 36 39 41 44 48 52 55 56 55 52 48 46 47
81 79 79 80 81 81 78 75 70 63 54 45 39 36 34 32 31 29 31 35 40 45 50 53 53 52 49 46 42 38 34 30 27 24 22 20 19 18 17 17 16 16 16 17 18 18 19 21 23 25 27 30 33 36 39 43 49 53 57 60 60 57 54
84 82 81 79 75 71 66 59 51 43 38 36 35 34 31 31 33 40 47 53 57 57 55 52 47 42 38 33 28 24 21 19 17 17 16 16 16 15 15 15 15 15 14 14 14 14 14 14 15 16 17 18 21 25 28 32 38 42 47 52 57 60 61
79 75 71 66 60 54 47 40 37 35 36 35 32 32 37 44 53 60 62 61 58 53 46 41 35 29 25 21 19 18 18 18 18 19 19 19 19 19 19 18 17 16 16 15 15 15 15 15 15 15 15 15 15 16 18 20 23 28 33 38 44 49 55
68 62 56 49 43 39 36 35 36 35 32 32 37 48 59 66 67 65 61 55 49 42 34 29 24 21 20 19 20 20 21 22 22 23 23 23 22 22 21 20 19 18 17 16 16 15 15 15 15 15 15 16 16 16 17 17 17 19 21 24 29 34 39
53 46 41 38 35 36 37 36 33 32 37 48 61 70 72 70 65 59 52 44 35 29 25 22 21 21 22 23 24 25 26 28 28 28 27 27 26 26 26 25 24 23 21 19 19 18 17 16 16 15 15 15 15 15 16 17 18 18 19 19 19 22 25
Wind_Speed
80 81 82 84 86 88 89 89 89 89 89 88 88 87 87 87 87 87 88 88 88 88 88 88 87 87 86 86 85 85 85 85 85 85 84 84 84 84 84 84 85 85 83 83 84 85 86 88 89 89 88 87 86 85 85 85 86 87 87 87 87 86 86
82 81 81 81 82 84 85 86 87 87 88 88 88 88 88 88 88 89 90 90 90 90 89 89 88 87 86 86 86 86 86 86 86 86 86 86 86 86 86 86 86 87 86 85 85 86 86 87 89 90 91 91 90 89 88 88 88 88 89 90 89 89 88
87 86 85 84 83 83 83 84 85 86 86 87 87 88 88 89 89 89 89 90 90 90 90 89 89 88 87 87 86 86 86 86 86 86 86 86 87 87 87 87 88 88 89 88 88 87 87 88 90 90 91 93 93 92 91 90 89 89 90 91 92 91 91
85 86 87 87 87 86 85 85 85 85 86 86 86 86 87 88 89 89 89 89 89 90 90 89 89 88 88 88 88 87 86 86 86 86 86 86 87 87 87 87 88 89 90 91 90 90 89 90 91 91 91 93 94 95 94 93 91 91 91 91 92 92 92
80 80 80 81 82 83 84 84 84 85 85 86 86 86 86 86 87 88 88 89 90 90 91 90 90 90 89 90 90 89 88 88 88 88 88 88 88 88 88 88 89 90 91 92 92 91 91 92 92 93 93 94 95 96 97 96 94 92 92 92 92 92 92
77 77 76 76 75 76 77 78 79 80 81 82 83 84 84 85 85 85 86 87 88 89 90 90 90 89 90 90 90 90 90 90 90 90 90 90 90 90 90 91 91 91 91 93 93 93 93 94 94 94 95 95 96 97 98 98 97 95 93 93 93 93 92
75 75 76 75 75 74 73 73 73 74 75 75 77 78 80 82 83 84 84 85 86 87 88 89 89 90 90 90 90 90 90 90 91 91 91 91 91 91 91 92 92 92 93 94 94 94 94 95 95 96 96 96 96 97 98 98 98 97 94 92 91 92 91
74 74 74 74 74 74 73 73 72 72 72 72 73 74 75 76 78 81 82 83 84 85 85 86 87 88 89 89 89 90 90 90 91 91 91 91 91 91 92 92 92 93 93 94 94 94 94 94 95 95 96 96 97 98 97 97 97 98 96 94 93 92 93
74 73 72 73 72 73 73 72 72 72 72 72 72 73 73 74 75 76 78 80 82 84 85 85 86 86 86 87 87 88 88 89 89 90 90 91 91 91 92 93 93 94 94 94 95 94 93 93 94 94 94 95 96 97 97 97 98 98 97 96 96 95 95
74 73 72 71 71 71 71 71 71 71 71 72 72 72 73 73 73 74 75 76 78 81 84 86 87 88 89 89 89 89 89 89 89 89 90 90 90 91 91 92 93 93 94 94 94 94 93 93 93 92 92 94 95 96 97 98 99 99 98 98 99 97 96
75 73 71 70 70 70 69 70 70 70 71 71 72 72 72 72 72 73 73 74 76 78 80 82 85 87 89 90 91 92 92 92 92 92 92 92 92 92 92 93 93 93 94 95 95 94 94 94 93 92 92 93 94 96 98 99 99 99 99 99 99 98 97
74 72 71 70 69 68 68 69 69 69 70 70 71 72 72 71 71 72 73 74 76 77 78 79 81 82 84 86 88 89 90 91 91 92 93 93 94 94 94 95 95 96 96 96 96 96 96 96 95 94 93 93 94 95 97 99 100 100 99 99 98 97 97
71 70 69 68 68 67 67 67 68 68 69 69 70 71 71 70 70 72 73 75 76 77 78 78 79 80 81 82 83 85 86 87 88 89 90 91 92 92 93 94 95 95 96 97 97 98 97 97 96 96 96 95 96 97 99 100 101 100 100 100 99 97 97
67 66 66 66 65 65 65 66 66 66 67 67 68 69 69 69 69 71 73 75 76 77 78 78 79 80 81 81 82 82 83 84 84 85 86 86 87 87 88 89 90 91 92 94 95 97 97 97 96 97 96 96 97 99 100 100 101 101 101 101 101 100 100
62 62 62 62 62 62 63 63 64 64 65 65 66 67 67 68 69 70 72 73 74 75 75 76 77 78 79 79 79 80 81 82 82 83 83 83 83 83 84 84 85 86 87 89 90 92 93 94 94 94 95 95 95 97 99 100 101 101 102 102 102 102 102
57 58 58 59 59 59 60 60 61 61 62 63 63 64 64 65 66 66 67 68 69 69 69 69 70 71 72 72 73 74 75 77 78 79 79 80 80 80 81 82 82 83 83 84 85 86 87 87 88 89 90 91 91 93 94 96 98 99 100 101 102 102 102
53 54 55 55 56 56 57 57 58 58 59 59 60 59 59 60 60 60 60 60 59 59 59 60 60 61 62 63 65 66 68 70 71 72 73 73 74 75 76 77 78 79 79 80 81 82 83 83 83 83 84 86 87 87 88 91 93 94 94 96 97 98 99
51 51 52 52 53 53 54 54 54 55 55 55 54 54 53 53 52 52 52 51 51 52 53 55 55 56 57 58 59 61 63 64 65 66 66 66 68 70 71 73 73 73 75 77 78 79 80 80 80 81 82 83 84 84 85 87 89 89 89 91 92 93 93
48 49 49 50 50 51 51 51 51 50 50 50 50 49 48 48 48 47 48 48 49 51 52 53 54 55 55 56 58 59 60 62 63 64 63 63 65 67 69 70 69 69 71 74 75 76 76 77 78 78 79 79 80 80 81 83 85 85 84 86 87 87 87
46 47 47 47 47 47 47 47 46 46 46 46 46 46 45 45 45 46 47 49 49 50 51 52 53 54 55 56 57 58 59 60 61 62 61 61 63 66 66 66 65 66 69 71 71 72 73 74 74 75 76 76 77 77 78 79 81 82 81 81 81 81 82
44 45 44 44 45 44 43 43 43 43 43 43 43 44 44 44 44 46 48 49 49 49 50 51 51 52 52 53 54 56 57 58 59 60 60 61 63 64 64 64 65 67 68 70 70 71 72 72 73 74 75 76 76 76 77 78 79 80 80 79 79 79 79
41 42 42 42 42 42 41 41 41 41 42 43 44 45 45 44 44 46 48 48 47 47 48 48 49 50 51 53 55 57 58 59 61 62 63 64 66 66 67 68 69 69 71 72 73 74 74 75 76 77 78 78 79 79 79 79 80 81 81 81 80 80 80
39 39 40 40 40 40 40 41 41 41 42 43 44 45 45 44 43 45 47 46 46 47 48 50 51 52 54 56 58 60 62 63 65 66 67 68 69 70 72 72 73 73 74 75 76 77 78 79 80 81 81 82 83 83 83 83 83 84 84 84 83 83 82
37 37 38 39 39 39 40 40 41 41 41 42 43 43 43 42 43 46 47 47 48 50 52 53 55 57 58 60 62 64 65 67 68 70 71 72 73 74 76 76 77 77 78 79 80 81 81 82 83 84 84 85 85 86 86 86 86 87 87 87 87 86 85
35 35 36 37 38 38 39 39 39 39 39 40 40 42 43 42 45 48 50 50 52 54 56 58 59 61 63 65 66 68 69 71 72 73 74 75 76 77 78 79 80 81 82 82 83 83 84 84 85 86 87 87 88 88 88 89 89 90 90 90 89 89 88
33 34 35 35 36 36 37 37 37 38 38 38 40 42 43 44 47 51 53 54 56 58 60 62 63 65 66 67 68 70 71 72 73 74 75 76 77 78 79 80 81 82 83 84 85 85 86 86 87 88 88 89 89 89 90 90 91 91 91 91 91 91 91
32 33 33 33 34 35 35 35 36 37 38 39 41 43 45 47 51 54 55 57 59 61 63 64 65 66 67 67 68 69 70 71 73 74 75 76 77 78 79 80 81 81 82 83 83 84 85 86 87 88 88 89 89 89 90 90 91 91 91 91 91 91 91
30 31 31 31 32 33 33 34 35 37 39 40 43 45 47 50 54 56 58 60 62 63 63 64 65 65 66 67 68 69 70 70 71 72 73 73 74 74 74 75 75 76 76 76 77 77 78 79 80 80 81 83 84 84 85 86 86 87 87 87 88 89 89
28 28 29 29 30 32 33 35 36 39 41 43 46 48 50 53 57 59 59 60 61 61 62 62 63 63 63 64 64 64 64 65 65 65 66 66 67 67 67 68 69 69 70 70 71 71 70 70 71 71 72 73 75 76 77 78 79 80 81 81 82 83 84
25 26 27 28 30 32 34 36 38 41 44 46 49 51 54 56 57 58 58 58 59 59 59 58 58 57 56 56 56 56 57 57 58 59 60 61 62 63 64 65 66 66 67 68 69 69 69 69 69 69 69 69 69 70 71 72 73 75 76 77 78 79 80
23 24 26 29 31 33 36 38 41 44 47 50 52 53 54 55 55 56 56 55 54 53 51 50 49 49 48 49 49 50 51 52 53 55 56 58 59 61 62 63 65 66 67 68 68 69 69 69 69 69 69 69 69 69 69 70 71 72 73 74 74 74 75
23 25 28 31 33 36 39 42 44 47 49 51 52 52 52 52 52 51 49 47 45 44 43 42 42 42 43 44 45 47 48 50 51 53 55 56 58 59 61 62 63 65 66 67 68 69 70 71 71 71 70 70 69 69 68 68 69 71 72 73 73 72 72
25 28 31 34 37 40 43 45 47 48 48 49 50 50 49 47 45 42 40 38 37 37 37 37 38 39 40 42 43 45 46 48 49 50 52 53 54 55 56 57 58 60 61 63 65 66 68 69 70 71 71 72 71 71 70 69 69 70 70 71 72 72 72
28 31 35 38 40 43 44 45 46 46 46 46 46 44 41 38 36 34 33 33 32 32 33 34 35 37 38 40 41 42 43 43 44 44 45 46 47 47 48 50 51 53 54 56 58 60 62 64 66 67 68 70 71 72 72 72 72 71 71 71 71 71 71
33 36 38 40 42 43 43 43 44 44 43 41 38 35 32 31 30 29 28 28 28 29 30 32 33 35 36 36 37 37 38 38 38 38 38 38 39 40 41 42 43 45 47 49 51 52 54 56 58 60 62 64 66 67 69 71 72 73 73 73 73 72 71
36 38 39 40 40 41 42 42 41 39 35 32 30 28 28 27 25 24 24 25 26 27 28 30 30 31 32 32 33 33 34 34 35 35 35 35 36 36 37 38 38 39 40 41 43 44 46 48 50 52 54 56 59 61 63 65 67 69 71 72 74 74 73
Wind_Direction
259 259 258 257 257 257 257 257 257 258 258 258 259 259 259 259 259 260 260 260 261 261 260 260 260 261 261 261 261 261 261 261 261 261 261 262 262 263 263 263 263 263 261 262 262 262 261 261 261 260 258 258 258 258 259 259 260 260 260 260 260 260 261
261 260 259 258 258 257 257 258 258 259 259 259 260 260 260 260 260 260 260 260 261 261 261 262 262 262 262 263 263 263 263 264 264 264 264 264 264 264 264 265 265 265 264 264 264 264 263 263 263 262 261 259 258 258 259 259 260 260 260 260 260 260 260
264 263 262 261 260 259 258 258 258 259 259 259 259 260 260 260 261 261 261 261 261 262 262 262 262 263 263 263 264 264 264 265 265 265 265 265 265 266 266 266 267 267 266 266 266 265 265 264 264 264 263 262 260 259 259 259 259 260 260 260 260 260 260
267 266 265 264 263 263 262 261 260 259 259 259 259 259 259 260 260 260 261 261 261 262 262 263 263 263 263 263 263 263 264 264 265 265 265 265 266 266 266 266 267 267 267 266 266 266 265 265 265 265 264 263 262 261 260 260 260 260 260 260 260 261 260
268 268 268 268 267 267 266 265 264 263 262 261 260 260 260 260 260 260 260 261 261 262 263 263 263 263 263 263 263 263 264 264 264 264 264 265 265 266 266 266 266 266 266 266 265 265 265 264 265 265 264 264 264 263 262 261 260 260 260 260 260 260 261
268 268 269 269 269 269 269 268 268 267 266 265 263 262 262 261 261 261 261 261 261 262 262 263 263 263 263 263 263 264 264 264 264 264 264 264 265 265 265 265 265 265 265 265 265 265 264 264 264 264 264 264 264 264 263 262 261 260 260 261 261 260 260
267 267 268 268 269 269 269 269 269 269 269 268 267 266 264 263 263 263 263 262 262 262 262 262 262 262 262 263 263 263 263 263 263 263 264 264 264 264 264 264 264 264 265 265 265 265 264 264 264 264 265 265 265 265 264 263 263 261 260 260 260 260 259
267 267 267 267 268 268 269 269 269 269 269 269 269 268 267 266 264 263 263 263 263 263 263 263 263 263 263 263 263 263 263 263 262 263 263 263 263 263 264 264 264 264 264 264 264 264 264 264 264 264 265 265 265 266 265 265 264 262 261 259 259 259 259
266 266 266 266 267 267 268 268 269 269 270 269 269 269 268 268 267 266 264 263 262 262 262 262 262 262 261 261 262 262 262 262 262 262 262 262 262 263 263 263 264 264 264 264 264 264 264 263 263 263 264 264 264 265 265 264 264 263 262 260 259 258 258
266 265 265 265 265 266 267 267 268 269 269 269 269 269 269 268 268 268 267 266 265 263 262 261 260 260 260 260 260 260 261 261 261 261 261 261 261 261 262 262 262 263 263 263 264 264 263 263 263 263 263 262 263 263 263 263 263 262 262 261 260 259 259
265 264 264 264 265 265 266 267 267 268 268 269 269 269 268 269 269 269 268 268 267 266 264 263 262 262 261 261 261 261 261 261 261 261 261 261 260 260 260 261 261 261 261 262 262 262 262 262 262 262 262 261 261 261 262 262 262 261 261 260 260 260 259
264 263 263 264 264 265 266 266 267 267 268 268 268 269 269 269 269 269 269 268 267 266 266 266 265 265 264 264 263 263 262 262 262 262 262 262 261 261 261 261 261 261 261 261 261 261 261 262 262 262 261 261 261 260 260 261 261 261 261 260 260 260 260
263 263 263 263 264 264 265 266 266 267 267 268 268 269 269 269 269 269 268 268 267 267 267 267 267 266 265 265 264 264 264 263 263 263 263 263 263 263 263 263 263 263 263 263 263 262 262 262 262 262 261 261 261 261 261 261 261 261 261 261 261 261 261
261 262 262 262 263 264 264 265 266 266 267 268 269 269 270 270 269 269 269 268 268 268 267 267 266 266 265 265 265 264 264 264 264 264 264 264 264 264 264 264 264 264 264 264 264 264 263 263 262 262 262 261 261 261 261 261 262 261 261 261 260 260 260
260 261 261 262 262 263 264 265 266 267 267 268 269 270 270 270 269 269 269 269 268 268 267 267 266 265 265 265 265 265 264 264 264 264 264 264 264 264 264 264 264 264 264 264 265 265 265 264 263 263 263 262 261 261 261 261 261 261 261 261 260 260 260
260 260 260 261 262 263 264 265 266 267 268 269 269 270 271 271 270 270 270 269 269 268 268 267 266 265 265 265 265 265 265 265 264 264 264 264 264 265 265 264 264 264 265 265 265 265 265 265 264 263 263 262 261 261 261 261 261 260 261 261 261 260 260
260 260 260 261 262 263 264 265 266 267 268 269 270 271 271 271 271 271 270 270 270 269 268 267 267 266 266 266 266 266 265 265 265 265 265 265 265 265 265 264 264 264 265 265 265 265 265 265 264 264 263 263 262 261 261 261 261 261 261 261 261 260 260
259 260 260 261 262 263 264 265 266 267 268 269 270 271 271 271 272 271 271 271 271 270 269 269 269 268 268 268 268 267 267 267 267 267 267 267 266 266 265 265 264 265 266 266 265 265 265 265 265 264 264 264 264 263 263 262 262 262 262 262 262 261 261
259 259 259 260 261 262 264 265 266 267 268 269 269 270 270 271 271 272 272 271 270 269 269 270 270 270 270 270 269 269 269 269 269 269 269 268 267 267 266 266 266 266 265 265 265 265 265 265 265 265 265 265 264 264 264 264 264 264 263 263 263 263 263
259 259 259 260 261 262 263 265 265 266 267 269 270 270 270 270 271 272 271 270 269 269 270 270 270 271 271 271 271 270 270 270 270 270 269 268 267 267 267 267 267 266 265 264 265 265 265 265 265 265 265 265 265 264 264 264 265 265 264 264 264 264 263
259 259 259 260 261 262 264 265 266 267 269 270 271 271 271 272 272 272 270 270 270 270 270 271 271 271 271 271 271 271 270 270 270 270 269 268 268 267 267 267 266 265 265 265 265 265 264 265 265 265 265 265 265 264 264 264 265 265 265 265 264 264 264
259 259 260 261 262 263 264 266 268 269 271 272 273 273 273 273 273 272 271 271 271 271 271 271 271 271 272 272 272 272 272 272 272 271 271 270 270 270 269 268 267 267 266 266 266 266 266 265 265 265 265 265 265 264 264 264 264 265 265 265 265 264 264
259 260 261 262 263 264 266 268 270 271 273 274 274 274 274 274 273 271 270 271 271 270 271 271 272 272 272 273 273 274 274 274 274 273 273 272 272 272 271 270 269 269 268 268 267 267 267 266 266 266 265 265 265 265 265 265 265 265 265 265 265 264 264
260 261 262 263 264 266 267 269 271 273 274 274 274 274 273 273 271 270 270 271 271 271 272 273 273 273 274 274 274 274 275 275 275 275 274 274 274 273 273 273 272 271 270 269 268 268 267 267 267 266 266 265 265 265 265 265 265 264 264 264 263 263 263
260 262 263 265 266 267 268 270 271 272 273 273 272 272 271 271 271 271 272 273 273 274 274 274 275 275 275 275 275 275 275 275 275 275 275 275 274 274 274 274 273 273 272 271 270 269 268 267 267 266 266 266 265 265 265 264 264 263 263 263 263 262 262
261 263 264 266 267 268 269 270 270 271 271 270 270 271 272 273 273 274 275 276 277 277 277 278 278 278 278 277 277 277 276 276 276 276 275 275 275 274 274 274 273 273 272 272 271 270 269 268 267 267 266 266 265 265 264 264 263 263 263 262 262 261 261
262 263 265 266 268 269 270 270 270 270 270 270 271 272 274 276 278 279 280 281 282 282 282 282 282 282 281 281 281 280 279 279 278 278 277 276 276 275 275 274 273 273 272 271 271 270 269 269 268 267 267 266 265 265 264 263 263 262 262 262 261 260 260
263 265 266 268 269 270 271 271 271 272 272 273 274 276 278 281 282 284 285 285 286 286 286 286 285 285 284 284 283 283 282 282 281 280 279 279 278 277 277 276 275 274 273 272 271 270 269 269 268 267 266 266 265 265 264 263 263 262 262 261 260 259 258
267 268 270 271 271 271 272 273 274 276 277 278 279 281 282 284 285 286 287 287 287 287 287 287 287 286 286 285 285 284 284 283 283 282 282 281 281 280 279 278 278 277 276 275 274 272 271 270 268 267 266 266 265 265 264 264 263 262 261 260 259 258 257
270 271 271 272 273 275 276 277 279 280 281 282 283 284 285 286 287 287 288 288 288 288 287 287 287 287 286 286 286 285 285 285 285 284 284 283 283 282 281 280 279 278 277 276 275 274 273 271 270 268 266 265 264 264 263 263 263 262 262 261 260 258 257
270 271 273 275 277 279 280 281 282 283 285 286 287 287 288 288 288 289 289 289 289 289 288 288 288 288 288 288 288 288 288 288 287 287 286 286 285 284 283 282 280 279 278 277 275 274 273 272 271 269 268 266 264 263 262 262 262 262 262 262 261 260 258
273 276 279 281 282 283 284 285 286 287 289 289 290 290 290 290 290 290 290 290 290 290 290 290 291 291 292 292 292 292 292 292 292 291 290 289 288 287 285 284 282 280 279 277 275 274 273 271 270 269 268 267 265 264 262 261 260 260 260 260 260 260 259
281 282 284 285 286 287 289 289 290 291 291 291 292 292 292 292 292 291 291 291 292 293 294 295 296 296 296 297 297 297 298 297 297 297 296 296 294 293 291 289 287 285 282 280 278 276 274 272 270 268 267 265 264 263 262 261 260 259 259 259 259 259 259
288 289 290 291 291 292 292 293 293 293 293 293 293 293 293 293 293 293 294 295 296 297 298 299 300 301 302 303 304 304 305 305 305 305 305 304 303 301 299 296 293 290 287 284 282 279 277 274 272 270 268 266 264 263 261 260 259 258 258 258 258 258 258
295 295 295 295 295 295 295 295 295 295 295 294 293 293 293 294 295 297 298 299 301 302 303 304 306 307 308 310 311 312 313 313 314 314 315 315 314 313 310 307 304 300 295 292 288 285 281 279 276 273 271 269 266 264 262 260 258 257 257 257 257 257 257
299 299 298 298 297 297 297 297 296 296 294 294 294 295 296 297 298 299 301 304 306 308 310 311 313 315 316 318 319 321 323 324 325 326 327 328 328 327 325 323 319 314 309 304 299 294 290 286 282 278 275 272 269 267 264 262 260 258 256 255 255 255 255